Weather in Nizhneye

Russia / Kaluga Oblast     55°09′50″N   36°57′24″E
temp.,
°C
wind,
m/s
gust,
m/s
humid.,
%
clouds,
%
prec.,
mm/h
press.,
hPa
HPBL,
m
12 may, wed
wed1200:00+11se249810 0.0 102688
03:00+8se11965 0.0 102613
06:00+9se12917 0.0 102775
09:00+12ene117297 0.0 1026245
12:00+17ne355295 0.0 10231047
15:00+16ene41181100 0.3 10201279
18:00+14e61784100 0.5 10181484
21:00+13ese71391100 1.1 10161119
13 may, thu
thu1300:00+6se269926 0.3 1020191
03:00+5e249890 0.3 1020102
06:00+7e2795100 0.0 1020226
09:00+12ese487796 0.0 1019488
12:00+16se4856100 0.0 10161192
15:00+15se486999 0.2 10151049
18:00+9sse249692 3.1 1016254
21:00+7se2498100 3.1 101688
14 may, fri
fri1400:00+7sse2798100 0.0 1016161
03:00+7sse2598100 0.0 1017110
06:00+8se259799 0.0 1017135
09:00+14se3685100 0.0 1016452
12:00+19se4660100 0.0 10151085
15:00+19se487481 1.4 10131050
18:00+17se41085100 3.4 1011428
21:00+14se2397100 8.1 101156
15 may, sat
sat1500:00+13sse2496100 0.0 101169
03:00+14sse3797100 0.2 1010140
06:00+14sse31194100 1.9 1010390
09:00+18sse368041 1.9 1009487
12:00+16sse4994100 3.0 1010507
15:00+20s478127 5.1 1008958
18:00+19ssw49833 1.6 1008923
21:00+14s311965 2.0 1009335
16 may, sun
sun1600:00+12s3109810 0.0 1010302
03:00+11ssw3109814 0.0 1011312
06:00+11ssw399711 0.0 1012323
09:00+16sw47755 0.0 1012705
12:00+20sw45520 0.0 10131577
15:00+21sw464729 0.0 10132117
18:00+17w2372100 0.0 101399
21:00+13wnw118646 0.0 101411